Regional Weather Roundup
Issued by NWS

Home | Current Version | Previous Version | Graphics & Text | Print | Product List | Glossary On
Versions: 1 2 3 4 5 6 7 8 9 10 11 12 13 14 15 16 17 18 19 20 21 22 23 24 25 26 27 28 29 30 31 32 33 34 35 36 37 38 39 40 41 42 43 44 45 46 47 48 49 50
000
ASUS45 KBOI 230010
RWRID

IDAHO REGIONAL WEATHER ROUNDUP
NATIONAL WEATHER SERVICE BOISE ID
600 PM MDT SUN APR 22 2018

NOTE: "FAIR" INDICATES FEW OR NO CLOUDS BELOW 12000 FEET
WITH NO SIGNIFICANT WEATHER AND/OR OBSTRUCTIONS TO VISIBILITY

IDZ012-014-230100-
SOUTHWEST IDAHO


CITY           SKY/WX    TMP DP  RH WIND       PRES   REMARKS
BOISE          PTSUNNY   63  28  26 NW22G29   30.02S
CALDWELL       PTSUNNY   65  23  20 NW16      30.03F
$$

IDZ016-017-230100-
SOUTHCENTRAL IDAHO


CITY           SKY/WX    TMP DP  RH WIND       PRES   REMARKS
BURLEY         CLOUDY    64  34  32 W12G23    29.95F
JEROME         MOSUNNY   61  34  36 W15       29.99S
TWIN FALLS     PTSUNNY   60  34  37 W16       29.99F
$$

IDZ019>023-230100-
SOUTHEAST IDAHO


CITY           SKY/WX    TMP DP  RH WIND       PRES   REMARKS
IDAHO FALLS    SUNNY     70  28  21 SW16G22   29.96F
POCATELLO      MOSUNNY   73  31  21 NW7       29.94F
REXBURG        PTSUNNY   67  29  24 W10       29.96F
$$

IDZ006-010-011-018-031-032-230100-
CENTRAL IDAHO MOUNTAINS


CITY           SKY/WX    TMP DP  RH WIND       PRES   REMARKS
MCCALL         MOSUNNY   56  25  30 NW9       30.05S
HAILEY         PTSUNNY   63  34  34 CALM      29.99F
STANLEY          N/A     54  29  38 VRB5      30.04F
SALMON         CLOUDY    63  34  33 N15       29.95S
CHALLIS        CLOUDY    65  31  28 SW8G20    29.96R
$$

IDZ002-004-006-007-026-230100-
NORTHERN IDAHO


CITY           SKY/WX    TMP DP  RH WIND       PRES   REMARKS
LEWISTON       SUNNY     60  26  27 NW9       30.20S
LOWELL           N/A     59  31  34 S5        30.15S
COEUR D`ALENE  MOSUNNY   56  25  30 SW7       30.20S
MULLAN PASS    SUNNY     42  18  37 VRB3      30.15S
$$



USA.gov is the U.S. government's official web portal to all federal, state and local government web resources and services.